FW3241 Weather Reports


Display with metric or nautical units.
time (UTC)temp
F
wind
direction
speed
MPH
gust
MPH
rain 1hr
in
rain 24hr
in
rain mn
in
humidity
%
barometer
mb
20260507103028 53 184 0.0 0.0 0.01 0.91 0.10 85 1011.7
20260507101535 53 184 0.0 0.0 0.00 0.90 0.09 85 1010.9
20260507100034 53 184 0.0 1.0 0.00 0.90 0.09 85 1010.7
20260507094523 53 184 0.0 2.0 0.00 0.90 0.09 85 1011.4
20260507093024 53 184 0.0 0.0 0.00 0.90 0.09 85 1010.8
20260507091520 53 184 0.0 1.0 0.00 0.90 0.09 85 1010.4
20260507090019 54 184 0.0 0.0 0.00 0.90 0.09 85 1010.7
20260507084518 54 184 0.0 0.0 0.00 0.90 0.09 85 1010.8
20260507083018 53 184 0.0 0.0 0.00 0.90 0.09 85 1010.9
20260507081519 53 184 0.0 0.0 0.00 0.90 0.09 84 1011.1
20260507080016 53 184 0.0 0.0 0.00 0.90 0.09 85 1011.1
20260507074516 54 184 0.0 2.0 0.00 0.90 0.09 85 1011.4
20260507073015 54 184 0.0 2.0 0.00 0.90 0.09 85 1012.1
20260507071513 54 184 0.0 0.0 0.01 0.90 0.09 85 1011.2
20260507070013 54 184 0.0 0.0 0.01 0.90 0.09 84 1011.1
20260507064512 53 184 0.0 0.0 0.01 0.90 0.09 85 1011.1
20260507063011 53 184 0.0 0.0 0.01 0.90 0.09 85 1011.5
20260507061608 53 184 0.0 0.0 0.00 0.89 0.08 85 1012.0
20260507060017 53 182 0.0 1.0 0.00 0.89 0.08 85 1012.1
20260507054506 53 182 0.0 0.0 0.02 0.89 0.08 84 1012.7
20260507053005 53 182 0.0 0.0 0.06 0.89 0.08 84 1013.3
20260507051506 53 182 0.0 1.0 0.07 0.89 0.08 84 1013.8
20260507050002 53 182 0.0 1.0 0.07 0.88 0.07 84 1013.6
20260507044601 54 182 1.0 2.0 0.06 0.87 0.06 85 1013.9
20260507043102 54 217 0.0 0.0 0.17 0.83 0.02 84 1013.7
20260507041556 54 217 0.0 0.0 0.16 0.82 0.01 85 1014.1
20260507040053 54 218 0.0 2.0 0.15 0.81 0.00 85 1014.0
20260507034555 55 207 0.0 3.0 0.15 0.81 0.81 84 1014.0
20260507033053 55 103 1.0 3.0 0.00 0.66 0.66 85 1013.2
20260507031551 55 103 0.0 0.0 0.00 0.66 0.66 85 1014.0
20260507030052 55 103 1.0 2.0 0.00 0.66 0.66 85 1013.5
20260507024603 54 103 0.0 1.0 0.01 0.66 0.66 85 1014.3
20260507023050 54 103 0.0 0.0 0.02 0.66 0.66 84 1014.2
20260507021549 54 96 0.0 2.0 0.02 0.66 0.66 84 1013.0
20260507020105 55 96 1.0 6.0 0.02 0.66 0.66 85 1012.2
20260507014555 55 98 0.0 4.0 0.03 0.65 0.65 85 1013.8
20260507013049 55 186 0.0 1.0 0.03 0.64 0.64 85 1015.8
20260507011544 55 185 0.0 1.0 0.03 0.64 0.64 85 1014.5
20260507010044 55 190 0.0 1.0 0.04 0.63 0.63 85 1014.3
20260507004545 55 188 0.0 1.0 0.05 0.62 0.62 84 1014.4
20260507003043 55 190 0.0 4.0 0.05 0.61 0.61 84 1013.7
20260507001545 55 189 0.0 2.0 0.06 0.61 0.61 84 1013.4
20260507000041 55 179 0.0 2.0 0.09 0.59 0.59 84 1013.3
20260506234548 56 195 0.0 3.0 0.07 0.56 0.56 84 1012.6
20260506233041 56 171 1.0 2.0 0.06 0.56 0.56 83 1013.3
20260506231549 56 191 0.0 3.0 0.05 0.55 0.55 83 1013.2
20260506230052 56 189 1.0 3.0 0.00 0.50 0.50 83 1014.1
20260506224540 56 189 0.0 2.0 0.00 0.50 0.50 83 1013.4
20260506223050 56 192 0.0 2.0 0.04 0.50 0.50 84 1013.4
20260506221537 57 217 0.0 1.0 0.06 0.50 0.50 83 1013.2
20260506220038 57 226 0.0 1.0 0.09 0.50 0.50 83 1012.8
20260506214537 57 239 0.0 1.0 0.13 0.50 0.50 84 1013.4
20260506213049 57 198 1.0 4.0 0.09 0.46 0.46 79 1014.0
20260506211548 57 210 1.0 3.0 0.07 0.44 0.44 77 1013.9
20260506210036 58 187 0.0 3.0 0.04 0.41 0.41 74 1013.8
20260506204545 60 190 1.0 2.0 0.00 0.37 0.37 74 1014.3
20260506203034 60 196 1.0 4.0 0.00 0.37 0.37 71 1014.2
20260506201547 61 196 2.0 7.0 0.00 0.37 0.37 70 1013.9
20260506200033 61 207 1.0 2.0 0.00 0.37 0.37 70 1014.0
20260506194533 62 232 2.0 7.0 0.00 0.37 0.37 69 1014.0
20260506193036 62 189 0.0 5.0 0.00 0.37 0.37 69 1014.0
20260506191535 62 173 1.0 7.0 0.00 0.37 0.37 68 1014.2
20260506190031 63 190 2.0 5.0 0.00 0.37 0.37 66 1014.2
20260506184530 65 190 2.0 9.0 0.00 0.37 0.37 64 1014.1
20260506183039 64 188 2.0 14.0 0.00 0.37 0.37 64 1013.6
20260506181527 64 180 2.0 5.0 0.00 0.37 0.37 62 1013.5
20260506180024 63 189 2.0 5.0 0.00 0.37 0.37 66 1013.6
20260506174520 62 194 1.0 7.0 0.00 0.37 0.37 67 1013.6
20260506173017 60 182 0.0 4.0 0.00 0.37 0.37 71 1013.3
20260506171515 58 178 3.0 8.0 0.01 0.37 0.37 70 1013.2
20260506170011 56 184 2.0 4.0 0.01 0.37 0.37 75 1013.5
20260506164510 55 161 1.0 4.0 0.02 0.37 0.37 83 1013.5
20260506163013 55 174 1.0 6.0 0.05 0.37 0.37 83 1014.4
20260506161510 55 143 1.0 4.0 0.06 0.36 0.36 84 1015.2
20260506160010 55 184 2.0 6.0 0.23 0.36 0.36 84 1015.6
20260506154508 55 179 2.0 4.0 0.30 0.35 0.35 83 1015.7
20260506153010 55 196 1.0 7.0 0.31 0.32 0.32 83 1015.3
20260506151506 55 196 1.0 5.0 0.30 0.30 0.30 81 1014.6
20260506150101 56 277 2.0 6.0 0.13 0.13 0.13 77 1015.3
20260506144606 57 219 0.0 5.0 0.05 0.05 0.05 76 1013.7
20260506143102 57 190 1.0 5.0 0.01 0.01 0.01 72 1014.1
20260506141554 57 192 1.0 9.0 0.00 0.00 0.00 71 1014.0
20260506140054 58 192 0.0 3.0 0.00 0.00 0.00 70 1013.9
20260506134553 58 209 2.0 4.0 0.00 0.00 0.00 72 1013.3
20260506133052 57 192 1.0 3.0 0.00 0.00 0.00 72 1013.4
20260506131551 57 180 0.0 6.0 0.00 0.00 0.00 70 1013.3
20260506130058 57 182 1.0 3.0 0.00 0.00 0.00 68 1014.1
20260506124549 57 215 1.0 5.0 0.00 0.00 0.00 68 1013.4
20260506123049 57 179 2.0 7.0 0.00 0.00 0.00 69 1013.2
20260506121552 58 170 1.0 5.0 0.00 0.00 0.00 67 1013.2
20260506120046 58 198 1.0 3.0 0.00 0.00 0.00 66 1013.5
20260506114545 58 231 1.0 4.0 0.00 0.00 0.00 66 1013.2
20260506113045 58 178 1.0 5.0 0.00 0.00 0.00 66 1013.2
20260506111544 58 93 1.0 6.0 0.00 0.00 0.00 66 1013.2
20260506110044 58 238 3.0 12.0 0.00 0.00 0.00 65 1013.3
20260506104543 58 223 1.0 7.0 0.00 0.00 0.00 65 1012.9